Location: Newark
(45.4422°N, 16.2769°E)
Time: 21:18:44
(UTC+00:00)

Tiros 1 despin weight - Pass Details

Date: 21 December 2019
Orbit: 593 x 643 km, 48.2° (Epoch: 19 January)

Event Time Altitude Azimuth Distance (km) Brightness Sun altitude
Rises 04:29:32 0° 289° (WNW) 2,894 - -20.4°
Reaches altitude 10° 04:31:52 10° 288° (WNW) 1,978 - -20.0°
Exits shadow 04:35:08 46° 282° (WNW) 819 ? -19.4°
Maximum altitude 04:36:25 81° 203° (SSW) 620 ? -19.2°
Drops below altitude 10° 04:40:52 10° 115° (ESE) 1,942 ? -18.5°
Sets 04:43:09 0° 115° (ESE) 2,837 ? -18.1°
